Year,Month,Day,Hour,Minute,Value (Times are PST for temperature in C)
2009,08,20,00,00,20.20
2009,08,20,00,01,20.10
2009,08,20,00,02,20.10
2009,08,20,00,03,20.10
2009,08,20,00,04,20.10
2009,08,20,00,05,20.10
2009,08,20,00,06,20.10
2009,08,20,00,07,20.00
2009,08,20,00,08,20.00
2009,08,20,00,09,20.00
2009,08,20,00,10,19.90
2009,08,20,00,11,19.90
2009,08,20,00,12,19.90
2009,08,20,00,13,19.90
2009,08,20,00,14,19.80
2009,08,20,00,15,19.80
2009,08,20,00,16,19.80
2009,08,20,00,17,19.80
2009,08,20,00,18,19.80
2009,08,20,00,19,19.80
2009,08,20,00,20,19.70
2009,08,20,00,21,19.70
2009,08,20,00,22,19.70
2009,08,20,00,23,19.70
2009,08,20,00,24,19.70
2009,08,20,00,25,19.60
2009,08,20,00,26,19.60
2009,08,20,00,27,19.60
2009,08,20,00,28,19.60
2009,08,20,00,29,19.60
2009,08,20,00,30,19.60
2009,08,20,00,31,19.50
2009,08,20,00,32,19.50
2009,08,20,00,33,19.50
2009,08,20,00,34,19.50
2009,08,20,00,35,19.50
2009,08,20,00,36,19.40
2009,08,20,00,37,19.50
2009,08,20,00,38,19.40
2009,08,20,00,39,19.40
2009,08,20,00,40,19.40
2009,08,20,00,41,19.40
2009,08,20,00,42,19.40
2009,08,20,00,43,19.40
2009,08,20,00,44,19.40
2009,08,20,00,45,19.40
2009,08,20,00,46,19.40
2009,08,20,00,47,19.40
2009,08,20,00,48,19.40
2009,08,20,00,49,19.40
2009,08,20,00,50,19.40
2009,08,20,00,51,19.40
2009,08,20,00,52,19.30
2009,08,20,00,53,19.30
2009,08,20,00,54,19.30
2009,08,20,00,55,19.30
2009,08,20,00,56,19.30
2009,08,20,00,57,19.30
2009,08,20,00,58,19.30
2009,08,20,00,59,19.30
2009,08,20,01,00,19.30
2009,08,20,01,01,19.30
2009,08,20,01,02,19.20
2009,08,20,01,03,19.20
2009,08,20,01,04,19.20
2009,08,20,01,05,19.20
2009,08,20,01,06,19.20
2009,08,20,01,07,19.20
2009,08,20,01,08,19.20
2009,08,20,01,09,19.20
2009,08,20,01,10,19.20
2009,08,20,01,11,19.20
2009,08,20,01,12,19.20
2009,08,20,01,13,19.20
2009,08,20,01,14,19.20
2009,08,20,01,15,19.20
2009,08,20,01,16,19.20
2009,08,20,01,17,19.20
2009,08,20,01,18,19.20
2009,08,20,01,19,19.20
2009,08,20,01,20,19.10
2009,08,20,01,21,19.10
2009,08,20,01,22,19.10
2009,08,20,01,23,19.10
2009,08,20,01,24,19.10
2009,08,20,01,25,19.10
2009,08,20,01,26,19.10
2009,08,20,01,27,19.10
2009,08,20,01,28,19.10
2009,08,20,01,29,19.10
2009,08,20,01,30,19.00
2009,08,20,01,31,19.00
2009,08,20,01,32,19.00
2009,08,20,01,33,19.00
2009,08,20,01,34,19.00
2009,08,20,01,35,19.00
2009,08,20,01,36,19.00
2009,08,20,01,37,18.90
2009,08,20,01,38,18.90
2009,08,20,01,39,18.90
2009,08,20,01,40,18.90
2009,08,20,01,41,18.80
2009,08,20,01,42,18.80
2009,08,20,01,43,18.70
2009,08,20,01,44,18.70
2009,08,20,01,45,18.60
2009,08,20,01,46,18.60
2009,08,20,01,47,18.60
2009,08,20,01,48,18.50
2009,08,20,01,49,18.50
2009,08,20,01,50,18.40
2009,08,20,01,51,18.40
2009,08,20,01,52,18.40
2009,08,20,01,53,18.40
2009,08,20,01,54,18.40
2009,08,20,01,55,18.40
2009,08,20,01,56,18.40
2009,08,20,01,57,18.40
2009,08,20,01,58,18.40
2009,08,20,01,59,18.40
2009,08,20,02,00,18.40
2009,08,20,02,01,18.40
2009,08,20,02,02,18.40
2009,08,20,02,03,18.40
2009,08,20,02,04,18.40
2009,08,20,02,05,18.40
2009,08,20,02,06,18.40
2009,08,20,02,07,18.40
2009,08,20,02,08,18.40
2009,08,20,02,09,18.40
2009,08,20,02,10,18.40
2009,08,20,02,11,18.40
2009,08,20,02,12,18.30
2009,08,20,02,13,18.30
2009,08,20,02,14,18.30
2009,08,20,02,15,18.30
2009,08,20,02,16,18.30
2009,08,20,02,17,18.30
2009,08,20,02,18,18.30
2009,08,20,02,19,18.30
2009,08,20,02,20,18.30
2009,08,20,02,21,18.30
2009,08,20,02,22,18.30
2009,08,20,02,23,18.30
2009,08,20,02,24,18.20
2009,08,20,02,25,18.20
2009,08,20,02,26,18.20
2009,08,20,02,27,18.20
2009,08,20,02,28,18.20
2009,08,20,02,29,18.20
2009,08,20,02,30,18.20
2009,08,20,02,31,18.20
2009,08,20,02,32,18.20
2009,08,20,02,33,18.20
2009,08,20,02,34,18.20
2009,08,20,02,35,18.10
2009,08,20,02,36,18.10
2009,08,20,02,37,18.10
2009,08,20,02,38,18.10
2009,08,20,02,39,18.10
2009,08,20,02,40,18.10
2009,08,20,02,41,18.00
2009,08,20,02,42,18.00
2009,08,20,02,43,18.00
2009,08,20,02,44,17.90
2009,08,20,02,45,17.90
2009,08,20,02,46,17.90
2009,08,20,02,47,17.90
2009,08,20,02,48,17.90
2009,08,20,02,49,17.80
2009,08,20,02,50,17.80
2009,08,20,02,51,17.80
2009,08,20,02,52,17.80
2009,08,20,02,53,17.70
2009,08,20,02,54,17.70
2009,08,20,02,55,17.70
2009,08,20,02,56,17.70
2009,08,20,02,57,17.60
2009,08,20,02,58,17.60
2009,08,20,02,59,17.60
2009,08,20,03,00,17.50
2009,08,20,03,01,17.50
2009,08,20,03,02,17.40
2009,08,20,03,03,17.40
2009,08,20,03,04,17.40
2009,08,20,03,05,17.30
2009,08,20,03,06,17.30
2009,08,20,03,07,17.20
2009,08,20,03,08,17.20
2009,08,20,03,09,17.20
2009,08,20,03,10,17.10
2009,08,20,03,11,17.10
2009,08,20,03,12,17.10
2009,08,20,03,13,17.00
2009,08,20,03,14,17.00
2009,08,20,03,15,17.00
2009,08,20,03,16,16.90
2009,08,20,03,17,16.90
2009,08,20,03,18,16.90
2009,08,20,03,19,16.80
2009,08,20,03,20,16.80
2009,08,20,03,21,16.80
2009,08,20,03,22,16.80
2009,08,20,03,23,16.70
2009,08,20,03,24,16.70
2009,08,20,03,25,16.70
2009,08,20,03,26,16.70
2009,08,20,03,27,16.70
2009,08,20,03,28,16.60
2009,08,20,03,29,16.60
2009,08,20,03,30,16.60
2009,08,20,03,31,16.50
2009,08,20,03,32,16.50
2009,08,20,03,33,16.50
2009,08,20,03,34,16.40
2009,08,20,03,35,16.40
2009,08,20,03,36,16.40
2009,08,20,03,37,16.40
2009,08,20,03,38,16.40
2009,08,20,03,39,16.40
2009,08,20,03,40,16.40
2009,08,20,03,41,16.30
2009,08,20,03,42,16.30
2009,08,20,03,43,16.30
2009,08,20,03,44,16.30
2009,08,20,03,45,16.30
2009,08,20,03,46,16.30
2009,08,20,03,47,16.30
2009,08,20,03,48,16.30
2009,08,20,03,49,16.30
2009,08,20,03,50,16.30
2009,08,20,03,51,16.30
2009,08,20,03,52,16.20
2009,08,20,03,53,16.20
2009,08,20,03,54,16.20
2009,08,20,03,55,16.20
2009,08,20,03,56,16.20
2009,08,20,03,57,16.20
2009,08,20,03,58,16.20
2009,08,20,03,59,16.20
2009,08,20,04,00,16.20
2009,08,20,04,01,16.20
2009,08,20,04,02,16.20
2009,08,20,04,03,16.20
2009,08,20,04,04,16.20
2009,08,20,04,05,16.20
2009,08,20,04,06,16.20
2009,08,20,04,07,16.20
2009,08,20,04,08,16.20
2009,08,20,04,09,16.20
2009,08,20,04,10,16.20
2009,08,20,04,11,16.20
2009,08,20,04,12,16.20
2009,08,20,04,13,16.20
2009,08,20,04,14,16.20
2009,08,20,04,15,16.20
2009,08,20,04,16,16.20
2009,08,20,04,17,16.20
2009,08,20,04,18,16.20
2009,08,20,04,19,16.20
2009,08,20,04,20,16.20
2009,08,20,04,21,16.20
2009,08,20,04,22,16.10
2009,08,20,04,23,16.10
2009,08,20,04,24,16.10
2009,08,20,04,25,16.10
2009,08,20,04,26,16.10
2009,08,20,04,27,16.10
2009,08,20,04,28,16.10
2009,08,20,04,29,16.10
2009,08,20,04,30,16.10
2009,08,20,04,31,16.10
2009,08,20,04,32,16.10
2009,08,20,04,33,16.20
2009,08,20,04,34,16.20
2009,08,20,04,35,16.20
2009,08,20,04,36,16.20
2009,08,20,04,37,16.20
2009,08,20,04,38,16.20
2009,08,20,04,39,16.20
2009,08,20,04,40,16.20
2009,08,20,04,41,16.20
2009,08,20,04,42,16.20
2009,08,20,04,43,16.20
2009,08,20,04,44,16.20
2009,08,20,04,45,16.20
2009,08,20,04,46,16.20
2009,08,20,04,47,16.20
2009,08,20,04,48,16.20
2009,08,20,04,49,16.20
2009,08,20,04,50,16.20
2009,08,20,04,51,16.20
2009,08,20,04,52,16.20
2009,08,20,04,53,16.10
2009,08,20,04,54,16.10
2009,08,20,04,55,16.10
2009,08,20,04,56,16.10
2009,08,20,04,57,16.10
2009,08,20,04,58,16.10
2009,08,20,04,59,16.00
2009,08,20,05,00,16.00
2009,08,20,05,01,16.00
2009,08,20,05,02,16.00
2009,08,20,05,03,16.00
2009,08,20,05,04,16.00
2009,08,20,05,05,16.00
2009,08,20,05,06,16.00
2009,08,20,05,07,16.00
2009,08,20,05,08,16.00
2009,08,20,05,09,16.00
2009,08,20,05,10,16.00
2009,08,20,05,11,15.90
2009,08,20,05,12,15.90
2009,08,20,05,13,15.90
2009,08,20,05,14,15.90
2009,08,20,05,15,15.90
2009,08,20,05,16,15.90
2009,08,20,05,17,15.90
2009,08,20,05,18,15.90
2009,08,20,05,19,15.90
2009,08,20,05,20,15.80
2009,08,20,05,21,15.80
2009,08,20,05,22,15.80
2009,08,20,05,23,15.80
2009,08,20,05,24,15.80
2009,08,20,05,25,15.80
2009,08,20,05,26,15.80
2009,08,20,05,27,15.70
2009,08,20,05,28,15.70
2009,08,20,05,29,15.70
2009,08,20,05,30,15.70
2009,08,20,05,31,15.70
2009,08,20,05,32,15.70
2009,08,20,05,33,15.70
2009,08,20,05,34,15.60
2009,08,20,05,35,15.60
2009,08,20,05,36,15.60
2009,08,20,05,37,15.60
2009,08,20,05,38,15.60
2009,08,20,05,39,15.60
2009,08,20,05,40,15.60
2009,08,20,05,41,15.60
2009,08,20,05,42,15.60
2009,08,20,05,43,15.60
2009,08,20,05,44,15.60
2009,08,20,05,45,15.60
2009,08,20,05,46,15.60
2009,08,20,05,47,15.60
2009,08,20,05,48,15.50
2009,08,20,05,49,15.50
2009,08,20,05,50,15.50
2009,08,20,05,51,15.50
2009,08,20,05,52,15.50
2009,08,20,05,53,15.50
2009,08,20,05,54,15.50
2009,08,20,05,55,15.50
2009,08,20,05,56,15.50
2009,08,20,05,57,15.50
2009,08,20,05,58,15.50
2009,08,20,05,59,15.50
2009,08,20,06,00,15.50
2009,08,20,06,01,15.40
2009,08,20,06,02,15.40
2009,08,20,06,03,15.40
2009,08,20,06,04,15.40
2009,08,20,06,05,15.40
2009,08,20,06,06,15.30
2009,08,20,06,07,15.30
2009,08,20,06,08,15.30
2009,08,20,06,09,15.30
2009,08,20,06,10,15.30
2009,08,20,06,11,15.20
2009,08,20,06,12,15.20
2009,08,20,06,13,15.20
2009,08,20,06,14,15.20
2009,08,20,06,15,15.20
2009,08,20,06,16,15.20
2009,08,20,06,17,15.10
2009,08,20,06,18,15.10
2009,08,20,06,19,15.10
2009,08,20,06,20,15.10
2009,08,20,06,21,15.10
2009,08,20,06,22,15.10
2009,08,20,06,23,15.10
2009,08,20,06,24,15.10
2009,08,20,06,25,15.00
2009,08,20,06,26,15.00
2009,08,20,06,27,15.00
2009,08,20,06,28,15.00
2009,08,20,06,29,14.90
2009,08,20,06,30,14.90
2009,08,20,06,31,14.90
2009,08,20,06,32,14.90
2009,08,20,06,33,14.90
2009,08,20,06,34,14.90
2009,08,20,06,35,14.80
2009,08,20,06,36,14.80
2009,08,20,06,37,14.80
2009,08,20,06,38,14.80
2009,08,20,06,39,14.80
2009,08,20,06,40,14.80
2009,08,20,06,41,14.80
2009,08,20,06,42,14.80
2009,08,20,06,43,14.80
2009,08,20,06,44,14.80
2009,08,20,06,45,14.80
2009,08,20,06,46,14.80
2009,08,20,06,47,14.80
2009,08,20,06,48,14.80
2009,08,20,06,49,14.80
2009,08,20,06,50,14.80
2009,08,20,06,51,14.80
2009,08,20,06,52,14.80
2009,08,20,06,53,14.80
2009,08,20,06,54,14.80
2009,08,20,06,55,14.80
2009,08,20,06,56,14.80
2009,08,20,06,57,14.80
2009,08,20,06,58,14.90
2009,08,20,06,59,14.90
2009,08,20,07,00,14.90
2009,08,20,07,01,14.90
2009,08,20,07,02,14.90
2009,08,20,07,03,15.00
2009,08,20,07,04,15.00
2009,08,20,07,05,15.00
2009,08,20,07,06,15.10
2009,08,20,07,07,15.10
2009,08,20,07,08,15.10
2009,08,20,07,09,15.10
2009,08,20,07,10,15.10
2009,08,20,07,11,15.10
2009,08,20,07,12,15.20
2009,08,20,07,13,15.20
2009,08,20,07,14,15.20
2009,08,20,07,15,15.20
2009,08,20,07,16,15.20
2009,08,20,07,17,15.20
2009,08,20,07,18,15.30
2009,08,20,07,19,15.30
2009,08,20,07,20,15.30
2009,08,20,07,21,15.30
2009,08,20,07,22,15.40
2009,08,20,07,23,15.40
2009,08,20,07,24,15.40
2009,08,20,07,25,15.40
2009,08,20,07,26,15.50
2009,08,20,07,27,15.50
2009,08,20,07,28,15.50
2009,08,20,07,29,15.60
2009,08,20,07,30,15.60
2009,08,20,07,31,15.60
2009,08,20,07,32,15.60
2009,08,20,07,33,15.70
2009,08,20,07,34,15.70
2009,08,20,07,35,15.70
2009,08,20,07,36,15.70
2009,08,20,07,37,15.80
2009,08,20,07,38,15.80
2009,08,20,07,39,15.80
2009,08,20,07,40,15.80
2009,08,20,07,41,15.80
2009,08,20,07,42,15.90
2009,08,20,07,43,15.90
2009,08,20,07,44,15.90
2009,08,20,07,45,16.00
2009,08,20,07,46,16.00
2009,08,20,07,47,16.00
2009,08,20,07,48,16.10
2009,08,20,07,49,16.10
2009,08,20,07,50,16.20
2009,08,20,07,51,16.20
2009,08,20,07,52,16.20
2009,08,20,07,53,16.30
2009,08,20,07,54,16.30
2009,08,20,07,55,16.40
2009,08,20,07,56,16.40
2009,08,20,07,57,16.50
2009,08,20,07,58,16.50
2009,08,20,07,59,16.60
2009,08,20,08,00,16.60
2009,08,20,08,01,16.70
2009,08,20,08,02,16.70
2009,08,20,08,03,16.70
2009,08,20,08,04,16.80
2009,08,20,08,05,16.80
2009,08,20,08,06,16.80
2009,08,20,08,07,16.80
2009,08,20,08,08,16.80
2009,08,20,08,09,16.90
2009,08,20,08,10,16.90
2009,08,20,08,11,16.90
2009,08,20,08,12,16.90
2009,08,20,08,13,16.90
2009,08,20,08,14,17.00
2009,08,20,08,15,17.00
2009,08,20,08,16,17.00
2009,08,20,08,17,17.00
2009,08,20,08,18,17.00
2009,08,20,08,19,17.00
2009,08,20,08,20,17.10
2009,08,20,08,21,17.10
2009,08,20,08,22,17.10
2009,08,20,08,23,17.10
2009,08,20,08,24,17.10
2009,08,20,08,25,17.20
2009,08,20,08,26,17.20
2009,08,20,08,27,17.20
2009,08,20,08,28,17.30
2009,08,20,08,29,17.30
2009,08,20,08,30,17.30
2009,08,20,08,31,17.30
2009,08,20,08,32,17.40
2009,08,20,08,33,17.40
2009,08,20,08,34,17.50
2009,08,20,08,35,17.50
2009,08,20,08,36,17.50
2009,08,20,08,37,17.60
2009,08,20,08,38,17.60
2009,08,20,08,39,17.70
2009,08,20,08,40,17.70
2009,08,20,08,41,17.80
2009,08,20,08,42,17.80
2009,08,20,08,43,17.80
2009,08,20,08,44,17.90
2009,08,20,08,45,17.90
2009,08,20,08,46,18.00
2009,08,20,08,47,18.00
2009,08,20,08,48,18.10
2009,08,20,08,49,18.10
2009,08,20,08,50,18.10
2009,08,20,08,51,18.20
2009,08,20,08,52,18.20
2009,08,20,08,53,18.20
2009,08,20,08,54,18.30
2009,08,20,08,55,18.30
2009,08,20,08,56,18.30
2009,08,20,08,57,18.30
2009,08,20,08,58,18.40
2009,08,20,08,59,18.40
2009,08,20,09,00,18.50
2009,08,20,09,01,18.50
2009,08,20,09,02,18.50
2009,08,20,09,03,18.60
2009,08,20,09,04,18.60
2009,08,20,09,05,18.60
2009,08,20,09,06,18.70
2009,08,20,09,07,18.70
2009,08,20,09,08,18.70
2009,08,20,09,09,18.80
2009,08,20,09,10,18.80
2009,08,20,09,11,18.80
2009,08,20,09,12,18.80
2009,08,20,09,13,18.80
2009,08,20,09,14,18.90
2009,08,20,09,15,18.90
2009,08,20,09,16,18.90
2009,08,20,09,17,18.90
2009,08,20,09,18,18.90
2009,08,20,09,19,18.90
2009,08,20,09,20,18.90
2009,08,20,09,21,18.90
2009,08,20,09,22,18.90
2009,08,20,09,23,19.00
2009,08,20,09,24,19.00
2009,08,20,09,25,19.00
2009,08,20,09,26,19.00
2009,08,20,09,27,19.10
2009,08,20,09,28,19.10
2009,08,20,09,29,19.10
2009,08,20,09,30,19.20
2009,08,20,09,31,19.20
2009,08,20,09,32,19.20
2009,08,20,09,33,19.30
2009,08,20,09,34,19.30
2009,08,20,09,35,19.30
2009,08,20,09,36,19.40
2009,08,20,09,37,19.40
2009,08,20,09,38,19.50
2009,08,20,09,39,19.50
2009,08,20,09,40,19.60
2009,08,20,09,41,19.60
2009,08,20,09,42,19.70
2009,08,20,09,43,19.80
2009,08,20,09,44,19.80
2009,08,20,09,45,19.80
2009,08,20,09,46,19.90
2009,08,20,09,47,19.90
2009,08,20,09,48,20.00
2009,08,20,09,49,20.00
2009,08,20,09,50,20.10
2009,08,20,09,51,20.10
2009,08,20,09,52,20.20
2009,08,20,09,53,20.20
2009,08,20,09,54,20.20
2009,08,20,09,55,20.30
2009,08,20,09,56,20.30
2009,08,20,09,57,20.30
2009,08,20,09,58,20.30
2009,08,20,09,59,20.30
2009,08,20,10,00,20.40
2009,08,20,10,01,20.40
2009,08,20,10,02,20.50
2009,08,20,10,03,20.60
2009,08,20,10,04,20.60
2009,08,20,10,05,20.70
2009,08,20,10,06,20.70
2009,08,20,10,07,20.80
2009,08,20,10,08,20.80
2009,08,20,10,09,20.90
2009,08,20,10,10,20.90
2009,08,20,10,11,20.90
2009,08,20,10,12,20.90
2009,08,20,10,13,21.00
2009,08,20,10,14,21.00
2009,08,20,10,15,21.00
2009,08,20,10,16,21.10
2009,08,20,10,17,21.10
2009,08,20,10,18,21.10
2009,08,20,10,19,21.10
2009,08,20,10,20,21.10
2009,08,20,10,21,21.10
2009,08,20,10,22,21.00
2009,08,20,10,23,21.10
2009,08,20,10,24,21.10
2009,08,20,10,25,21.10
2009,08,20,10,26,21.10
2009,08,20,10,27,21.00
2009,08,20,10,28,21.00
2009,08,20,10,29,20.90
2009,08,20,10,30,20.90
2009,08,20,10,31,20.90
2009,08,20,10,32,20.90
2009,08,20,10,33,21.00
2009,08,20,10,34,21.00
2009,08,20,10,35,21.00
2009,08,20,10,36,21.00
2009,08,20,10,37,21.10
2009,08,20,10,38,21.10
2009,08,20,10,39,21.10
2009,08,20,10,40,21.10
2009,08,20,10,41,21.10
2009,08,20,10,42,21.00
2009,08,20,10,43,21.00
2009,08,20,10,44,21.00
2009,08,20,10,45,21.00
2009,08,20,10,46,20.90
2009,08,20,10,47,20.90
2009,08,20,10,48,20.90
2009,08,20,10,49,20.80
2009,08,20,10,50,20.70
2009,08,20,10,51,20.60
2009,08,20,10,52,20.60
2009,08,20,10,53,20.60
2009,08,20,10,54,20.50
2009,08,20,10,55,20.50
2009,08,20,10,56,20.40
2009,08,20,10,57,20.30
2009,08,20,10,58,20.30
2009,08,20,10,59,20.30
2009,08,20,11,00,20.30
2009,08,20,11,01,20.30
2009,08,20,11,02,20.30
2009,08,20,11,03,20.40
2009,08,20,11,04,20.40
2009,08,20,11,05,20.40
2009,08,20,11,06,20.50
2009,08,20,11,07,20.60
2009,08,20,11,08,20.60
2009,08,20,11,09,20.60
2009,08,20,11,10,20.60
2009,08,20,11,11,20.60
2009,08,20,11,12,20.60
2009,08,20,11,13,20.60
2009,08,20,11,14,20.60
2009,08,20,11,15,20.60
2009,08,20,11,16,20.60
2009,08,20,11,17,20.50
2009,08,20,11,18,20.50
2009,08,20,11,19,20.40
2009,08,20,11,20,20.30
2009,08,20,11,21,20.30
2009,08,20,11,22,20.20
2009,08,20,11,23,20.10
2009,08,20,11,24,20.00
2009,08,20,11,25,20.00
2009,08,20,11,26,19.90
2009,08,20,11,27,19.80
2009,08,20,11,28,19.80
2009,08,20,11,29,19.80
2009,08,20,11,30,19.80
2009,08,20,11,31,19.80
2009,08,20,11,32,19.80
2009,08,20,11,33,19.80
2009,08,20,11,34,19.90
2009,08,20,11,35,19.90
2009,08,20,11,36,19.90
2009,08,20,11,37,19.90
2009,08,20,11,38,19.90
2009,08,20,11,39,20.00
2009,08,20,11,40,20.00
2009,08,20,11,41,20.00
2009,08,20,11,42,20.10
2009,08,20,11,43,20.10
2009,08,20,11,44,20.20
2009,08,20,11,45,20.20
2009,08,20,11,46,20.20
2009,08,20,11,47,20.30
2009,08,20,11,48,20.30
2009,08,20,11,49,20.40
2009,08,20,11,50,20.40
2009,08,20,11,51,20.40
2009,08,20,11,52,20.50
2009,08,20,11,53,20.50
2009,08,20,11,54,20.60
2009,08,20,11,55,20.50
2009,08,20,11,56,20.50
2009,08,20,11,57,20.50
2009,08,20,11,58,20.50
2009,08,20,11,59,20.60
2009,08,20,12,00,20.70
2009,08,20,12,01,20.70
2009,08,20,12,02,20.80
2009,08,20,12,03,20.90
2009,08,20,12,04,21.00
2009,08,20,12,05,21.00
2009,08,20,12,06,21.10
2009,08,20,12,07,21.10
2009,08,20,12,08,21.20
2009,08,20,12,09,21.30
2009,08,20,12,10,21.30
2009,08,20,12,11,21.40
2009,08,20,12,12,21.50
2009,08,20,12,13,21.50
2009,08,20,12,14,21.60
2009,08,20,12,15,21.60
2009,08,20,12,16,21.70
2009,08,20,12,17,21.70
2009,08,20,12,18,21.70
2009,08,20,12,19,21.70
2009,08,20,12,20,21.70
2009,08,20,12,21,21.70
2009,08,20,12,22,21.80
2009,08,20,12,23,21.80
2009,08,20,12,24,21.80
2009,08,20,12,25,21.90
2009,08,20,12,26,21.90
2009,08,20,12,27,21.90
2009,08,20,12,28,21.90
2009,08,20,12,29,22.00
2009,08,20,12,30,22.10
2009,08,20,12,31,22.10
2009,08,20,12,32,22.10
2009,08,20,12,33,22.10
2009,08,20,12,34,22.20
2009,08,20,12,35,22.20
2009,08,20,12,36,22.10
2009,08,20,12,37,22.10
2009,08,20,12,38,22.20
2009,08,20,12,39,22.20
2009,08,20,12,40,22.20
2009,08,20,12,41,22.20
2009,08,20,12,42,22.20
2009,08,20,12,43,22.20
2009,08,20,12,44,22.20
2009,08,20,12,45,22.20
2009,08,20,12,46,22.20
2009,08,20,12,47,22.30
2009,08,20,12,48,22.30
2009,08,20,12,49,22.30
2009,08,20,12,50,22.30
2009,08,20,12,51,22.30
2009,08,20,12,52,22.30
2009,08,20,12,53,22.30
2009,08,20,12,54,22.40
2009,08,20,12,55,22.40
2009,08,20,12,56,22.40
2009,08,20,12,57,22.40
2009,08,20,12,58,22.40
2009,08,20,12,59,22.40
2009,08,20,13,00,22.40
2009,08,20,13,01,22.40
2009,08,20,13,02,22.40
2009,08,20,13,03,22.40
2009,08,20,13,04,22.50
2009,08,20,13,05,22.50
2009,08,20,13,06,22.60
2009,08,20,13,07,22.60
2009,08,20,13,08,22.70
2009,08,20,13,09,22.70
2009,08,20,13,10,22.70
2009,08,20,13,11,22.80
2009,08,20,13,12,22.80
2009,08,20,13,13,22.90
2009,08,20,13,14,22.90
2009,08,20,13,15,22.90
2009,08,20,13,16,23.00
2009,08,20,13,17,23.00
2009,08,20,13,18,23.10
2009,08,20,13,19,23.10
2009,08,20,13,20,23.20
2009,08,20,13,21,23.20
2009,08,20,13,22,23.30
2009,08,20,13,23,23.40
2009,08,20,13,24,23.40
2009,08,20,13,25,23.40
2009,08,20,13,26,23.40
2009,08,20,13,27,23.40
2009,08,20,13,28,23.40
2009,08,20,13,29,23.40
2009,08,20,13,30,23.40
2009,08,20,13,31,23.30
2009,08,20,13,32,23.30
2009,08,20,13,33,23.30
2009,08,20,13,34,23.40
2009,08,20,13,35,23.40
2009,08,20,13,36,23.40
2009,08,20,13,37,23.40
2009,08,20,13,38,23.40
2009,08,20,13,39,23.40
2009,08,20,13,40,23.40
2009,08,20,13,41,23.50
2009,08,20,13,42,23.50
2009,08,20,13,43,23.60
2009,08,20,13,44,23.60
2009,08,20,13,45,23.60
2009,08,20,13,46,23.60
2009,08,20,13,47,23.70
2009,08,20,13,48,23.80
2009,08,20,13,49,23.80
2009,08,20,13,50,23.90
2009,08,20,13,51,23.90
2009,08,20,13,52,24.00
2009,08,20,13,53,24.10
2009,08,20,13,54,24.10
2009,08,20,13,55,24.10
2009,08,20,13,56,24.10
2009,08,20,13,57,24.00
2009,08,20,13,58,24.00
2009,08,20,13,59,23.90
2009,08,20,14,00,23.90
2009,08,20,14,01,23.90
2009,08,20,14,02,23.90
2009,08,20,14,03,24.00
2009,08,20,14,04,24.10
2009,08,20,14,05,24.10
2009,08,20,14,06,24.20
2009,08,20,14,07,24.20
2009,08,20,14,08,24.30
2009,08,20,14,09,24.30
2009,08,20,14,10,24.30
2009,08,20,14,11,24.30
2009,08,20,14,12,24.30
2009,08,20,14,13,24.30
2009,08,20,14,14,24.40
2009,08,20,14,15,24.40
2009,08,20,14,16,24.40
2009,08,20,14,17,24.50
2009,08,20,14,18,24.50
2009,08,20,14,19,24.50
2009,08,20,14,20,24.60
2009,08,20,14,21,24.60
2009,08,20,14,22,24.50
2009,08,20,14,23,24.50
2009,08,20,14,24,24.50
2009,08,20,14,25,24.60
2009,08,20,14,26,24.60
2009,08,20,14,27,24.60
2009,08,20,14,28,24.70
2009,08,20,14,29,24.70
2009,08,20,14,30,24.80
2009,08,20,14,31,24.80
2009,08,20,14,32,24.90
2009,08,20,14,33,25.00
2009,08,20,14,34,25.10
2009,08,20,14,35,25.10
2009,08,20,14,36,25.20
2009,08,20,14,37,25.20
2009,08,20,14,38,25.30
2009,08,20,14,39,25.30
2009,08,20,14,40,25.30
2009,08,20,14,41,25.40
2009,08,20,14,42,25.40
2009,08,20,14,43,25.40
2009,08,20,14,44,25.50
2009,08,20,14,45,25.50
2009,08,20,14,46,25.60
2009,08,20,14,47,25.60
2009,08,20,14,48,25.70
2009,08,20,14,49,25.70
2009,08,20,14,50,25.60
2009,08,20,14,51,25.60
2009,08,20,14,52,25.50
2009,08,20,14,53,25.40
2009,08,20,14,54,25.30
2009,08,20,14,55,25.20
2009,08,20,14,56,25.10
2009,08,20,14,57,25.10
2009,08,20,14,58,25.10
2009,08,20,14,59,25.10
2009,08,20,15,00,25.10
2009,08,20,15,01,25.10
2009,08,20,15,02,25.10
2009,08,20,15,03,25.10
2009,08,20,15,04,25.10
2009,08,20,15,05,25.10
2009,08,20,15,06,25.10
2009,08,20,15,07,25.10
2009,08,20,15,08,25.20
2009,08,20,15,09,25.20
2009,08,20,15,10,25.20
2009,08,20,15,11,25.20
2009,08,20,15,12,25.20
2009,08,20,15,13,25.20
2009,08,20,15,14,25.10
2009,08,20,15,15,25.10
2009,08,20,15,16,25.00
2009,08,20,15,17,25.00
2009,08,20,15,18,25.00
2009,08,20,15,19,25.00
2009,08,20,15,20,25.00
2009,08,20,15,21,25.00
2009,08,20,15,22,25.00
2009,08,20,15,23,24.90
2009,08,20,15,24,24.90
2009,08,20,15,25,24.90
2009,08,20,15,26,24.80
2009,08,20,15,27,24.80
2009,08,20,15,28,24.80
2009,08,20,15,29,24.90
2009,08,20,15,30,24.80
2009,08,20,15,31,24.80
2009,08,20,15,32,24.70
2009,08,20,15,33,24.50
2009,08,20,15,34,24.40
2009,08,20,15,35,24.30
2009,08,20,15,36,24.30
2009,08,20,15,37,24.30
2009,08,20,15,38,24.20
2009,08,20,15,39,24.20
2009,08,20,15,40,24.10
2009,08,20,15,41,24.10
2009,08,20,15,42,24.10
2009,08,20,15,43,24.00
2009,08,20,15,44,24.10
2009,08,20,15,45,24.10
2009,08,20,15,46,24.10
2009,08,20,15,47,24.00
2009,08,20,15,48,24.00
2009,08,20,15,49,24.00
2009,08,20,15,50,24.00
2009,08,20,15,51,24.00
2009,08,20,15,52,24.10
2009,08,20,15,53,24.10
2009,08,20,15,54,24.20
2009,08,20,15,55,24.20
2009,08,20,15,56,24.10
2009,08,20,15,57,24.10
2009,08,20,15,58,24.10
2009,08,20,15,59,24.10
2009,08,20,16,00,24.20
2009,08,20,16,01,24.20
2009,08,20,16,02,24.20
2009,08,20,16,03,24.20
2009,08,20,16,04,24.20
2009,08,20,16,05,24.20
2009,08,20,16,06,24.20
2009,08,20,16,07,24.20
2009,08,20,16,08,24.20
2009,08,20,16,09,24.30
2009,08,20,16,10,24.30
2009,08,20,16,11,24.30
2009,08,20,16,12,24.40
2009,08,20,16,13,24.40
2009,08,20,16,14,24.50
2009,08,20,16,15,24.50
2009,08,20,16,16,24.60
2009,08,20,16,17,24.50
2009,08,20,16,18,24.50
2009,08,20,16,19,24.50
2009,08,20,16,20,24.40
2009,08,20,16,21,24.50
2009,08,20,16,22,24.60
2009,08,20,16,23,24.60
2009,08,20,16,24,24.60
2009,08,20,16,25,24.60
2009,08,20,16,26,24.70
2009,08,20,16,27,24.80
2009,08,20,16,28,24.80
2009,08,20,16,29,24.80
2009,08,20,16,30,24.80
2009,08,20,16,31,24.80
2009,08,20,16,32,24.80
2009,08,20,16,33,24.80
2009,08,20,16,34,24.80
2009,08,20,16,35,24.80
2009,08,20,16,36,24.80
2009,08,20,16,37,24.90
2009,08,20,16,38,24.90
2009,08,20,16,39,24.90
2009,08,20,16,40,24.90
2009,08,20,16,41,24.80
2009,08,20,16,42,24.70
2009,08,20,16,43,24.60
2009,08,20,16,44,24.60
2009,08,20,16,45,24.60
2009,08,20,16,46,24.60
2009,08,20,16,47,24.60
2009,08,20,16,48,24.60
2009,08,20,16,49,24.60
2009,08,20,16,50,24.70
2009,08,20,16,51,24.80
2009,08,20,16,52,24.80
2009,08,20,16,53,24.80
2009,08,20,16,54,24.90
2009,08,20,16,55,24.90
2009,08,20,16,56,24.80
2009,08,20,16,57,24.70
2009,08,20,16,58,24.70
2009,08,20,16,59,24.70
2009,08,20,17,00,24.60
2009,08,20,17,01,24.60
2009,08,20,17,02,24.60
2009,08,20,17,03,24.70
2009,08,20,17,04,24.70
2009,08,20,17,05,24.70
2009,08,20,17,06,24.70
2009,08,20,17,07,24.70
2009,08,20,17,08,24.70
2009,08,20,17,09,24.80
2009,08,20,17,10,24.80
2009,08,20,17,11,24.80
2009,08,20,17,12,24.80
2009,08,20,17,13,24.80
2009,08,20,17,14,24.80
2009,08,20,17,15,24.70
2009,08,20,17,16,24.70
2009,08,20,17,17,24.70
2009,08,20,17,18,24.70
2009,08,20,17,19,24.60